Tracking 30107 objects as of 25-Jan-2025
HD Live streaming from Space Station
objects crossing your sky now

EUTELSAT 1-F4 (ECS 4)

Track EUTELSAT 1-F4 (ECS 4) now!
EUTELSAT 1-F4 (ECS 4) is classified as:


NORAD ID: 18351
Int'l Code: 1987-078B
Perigee: 36,202.6 km
Apogee: 36,283.3 km
Inclination: 14.2 °
Period: 1,459.1 minutes
Semi major axis: 42613 km
RCS: 3.9811 m2 (large)
Launch date: September 16, 1987
Source: European Telecommunications Satellite Organization (EUTE)
Launch site: FRENCH GUIANA (FRGUI)
Your satellite tracking list
Your tracking list is empty




NASA's NSSDC Master Catalog

Two Line Element Set (TLE):
1 18351U 87078B   25024.67567219 -.00000216  00000-0  00000-0 0  9994
2 18351  14.1913 345.6995 0009468  17.4719 334.7064  0.98690415121739
Source of the keplerian elements: AFSPC